{"data":{"norad_id":53502,"intl_designator":"2022-099AP","name":"STARLINK-4435","alt_names":[],"object_type":"PAYLOAD","status":"ACTIVE","operator":null,"country":"US","launch_date":"2022-08-12","launch_site_code":"AFWTR","launch_vehicle":null,"mission":null,"orbit_class":"UNKNOWN","rcs_meters":null,"size_class":null,"mass_kg":null,"dimensions":null,"purposes":["comms"],"wikipedia_slug":null,"has_3d_model":false,"image_url":null,"decayed_at":null,"tle_current":{"epoch":"2026-05-25T04:00:03.998880Z","epoch_age_seconds":53927,"freshness":"FRESH","line1":"1 53502U 22099AP  26145.16671295  .00119088  00000+0  27281-2 0  9990","line2":"2 53502  97.6034 268.4038 0001599  73.6225  14.9219 15.42312670  5828","mean_motion":15.4231267,"eccentricity":0.0001599,"inclination_deg":97.6034,"raan_deg":268.4038,"arg_perigee_deg":73.6225,"mean_anomaly_deg":14.9219,"bstar":0.0027281,"rev_number":582,"period_min":93.366282207874,"perigee_km":438.19561664438,"apogee_km":440.37582843105,"semimajor_km":6817.4227225377,"source":"CELESTRAK","updated_at":"2026-05-25T13:38:17.437535Z"}}}